Voltar ao catálogo

COSMOS 917 DEB

LostHEO
NORAD 32966·DEBRIS·🇷🇺 Russia

Lançado Jun 16, 1977 de Plesetsk Cosmodrome

Loading…

Próximas Passagens (próximas 24 horas)

TLE

ObsoletoSource: Space-Track

Época: Apr 9, 2010, 08:44 UTC

1 32966U 77047P   10099.36413954  .00000051  00000-0  10000-3 0  9995
2 32966  69.0425 207.7156 5118664  97.4197 320.9967  1.88072006 41496

Acompanhe COSMOS 917 DEB em tempo real com AllMySat

Download on the App Store